Year,Month,Day,Hour,Minute,Value (Times are PST for windspeed in km/hr)
2006,12,13,00,00,2.40
2006,12,13,00,01,2.40
2006,12,13,00,02,2.90
2006,12,13,00,03,4.70
2006,12,13,00,04,3.80
2006,12,13,00,05,3.40
2006,12,13,00,06,2.40
2006,12,13,00,07,0.00
2006,12,13,00,08,1.00
2006,12,13,00,09,3.00
2006,12,13,00,10,2.10
2006,12,13,00,11,0.20
2006,12,13,00,12,1.00
2006,12,13,00,13,11.60
2006,12,13,00,14,9.40
2006,12,13,00,15,4.30
2006,12,13,00,16,3.80
2006,12,13,00,17,4.90
2006,12,13,00,18,2.60
2006,12,13,00,19,4.30
2006,12,13,00,20,4.80
2006,12,13,00,21,4.70
2006,12,13,00,22,2.40
2006,12,13,00,23,5.40
2006,12,13,00,24,3.50
2006,12,13,00,25,0.70
2006,12,13,00,26,2.40
2006,12,13,00,27,8.70
2006,12,13,00,28,4.90
2006,12,13,00,29,3.20
2006,12,13,00,30,2.20
2006,12,13,00,31,3.10
2006,12,13,00,32,6.40
2006,12,13,00,33,6.60
2006,12,13,00,34,2.00
2006,12,13,00,35,1.70
2006,12,13,00,36,2.10
2006,12,13,00,37,2.50
2006,12,13,00,38,1.50
2006,12,13,00,39,1.90
2006,12,13,00,40,3.30
2006,12,13,00,41,9.10
2006,12,13,00,42,3.10
2006,12,13,00,43,4.00
2006,12,13,00,44,4.70
2006,12,13,00,45,3.50
2006,12,13,00,46,2.30
2006,12,13,00,47,1.50
2006,12,13,00,48,1.20
2006,12,13,00,49,5.10
2006,12,13,00,50,5.80
2006,12,13,00,51,1.50
2006,12,13,00,52,3.50
2006,12,13,00,53,9.10
2006,12,13,00,54,7.20
2006,12,13,00,55,4.50
2006,12,13,00,56,3.00
2006,12,13,00,57,3.30
2006,12,13,00,58,2.90
2006,12,13,00,59,3.30
2006,12,13,01,00,2.20
2006,12,13,01,01,3.80
2006,12,13,01,02,3.40
2006,12,13,01,03,5.70
2006,12,13,01,04,8.20
2006,12,13,01,05,2.60
2006,12,13,01,06,1.50
2006,12,13,01,07,3.80
2006,12,13,01,08,2.10
2006,12,13,01,09,3.70
2006,12,13,01,10,4.70
2006,12,13,01,11,6.30
2006,12,13,01,12,6.30
2006,12,13,01,13,4.30
2006,12,13,01,14,3.10
2006,12,13,01,15,1.90
2006,12,13,01,16,1.10
2006,12,13,01,17,1.30
2006,12,13,01,18,1.20
2006,12,13,01,19,2.20
2006,12,13,01,20,3.70
2006,12,13,01,21,8.70
2006,12,13,01,22,3.60
2006,12,13,01,23,5.70
2006,12,13,01,24,3.90
2006,12,13,01,25,3.40
2006,12,13,01,26,3.90
2006,12,13,01,27,3.80
2006,12,13,01,28,3.50
2006,12,13,01,29,2.70
2006,12,13,01,30,3.20
2006,12,13,01,31,3.20
2006,12,13,01,32,3.60
2006,12,13,01,33,4.10
2006,12,13,01,34,4.00
2006,12,13,01,35,5.40
2006,12,13,01,36,11.10
2006,12,13,01,37,3.10
2006,12,13,01,38,3.50
2006,12,13,01,39,3.80
2006,12,13,01,40,8.20
2006,12,13,01,41,5.20
2006,12,13,01,42,3.40
2006,12,13,01,43,3.30
2006,12,13,01,44,3.30
2006,12,13,01,45,2.90
2006,12,13,01,46,2.00
2006,12,13,01,47,4.70
2006,12,13,01,48,3.50
2006,12,13,01,49,3.60
2006,12,13,01,50,3.40
2006,12,13,01,51,3.60
2006,12,13,01,52,3.00
2006,12,13,01,53,3.10
2006,12,13,01,54,5.70
2006,12,13,01,55,4.90
2006,12,13,01,56,3.60
2006,12,13,01,57,2.90
2006,12,13,01,58,0.00
2006,12,13,01,59,1.40
2006,12,13,02,00,3.50
2006,12,13,02,01,2.60
2006,12,13,02,02,2.60
2006,12,13,02,03,4.20
2006,12,13,02,04,9.60
2006,12,13,02,05,3.00
2006,12,13,02,06,2.90
2006,12,13,02,07,4.70
2006,12,13,02,08,6.40
2006,12,13,02,09,7.50
2006,12,13,02,10,10.40
2006,12,13,02,11,5.20
2006,12,13,02,12,3.40
2006,12,13,02,13,3.30
2006,12,13,02,14,4.10
2006,12,13,02,15,2.70
2006,12,13,02,16,2.80
2006,12,13,02,17,2.50
2006,12,13,02,18,2.50
2006,12,13,02,19,2.10
2006,12,13,02,20,2.50
2006,12,13,02,21,7.00
2006,12,13,02,22,1.10
2006,12,13,02,23,1.00
2006,12,13,02,24,2.40
2006,12,13,02,25,0.80
2006,12,13,02,26,2.30
2006,12,13,02,27,1.50
2006,12,13,02,28,3.60
2006,12,13,02,29,3.80
2006,12,13,02,30,1.90
2006,12,13,02,31,1.70
2006,12,13,02,32,2.00
2006,12,13,02,33,1.40
2006,12,13,02,34,1.60
2006,12,13,02,35,0.90
2006,12,13,02,36,0.30
2006,12,13,02,37,2.10
2006,12,13,02,38,3.70
2006,12,13,02,39,3.30
2006,12,13,02,40,0.80
2006,12,13,02,41,1.00
2006,12,13,02,42,7.10
2006,12,13,02,43,11.80
2006,12,13,02,44,5.00
2006,12,13,02,45,6.80
2006,12,13,02,46,2.70
2006,12,13,02,47,2.70
2006,12,13,02,48,8.40
2006,12,13,02,49,3.80
2006,12,13,02,50,3.00
2006,12,13,02,51,2.00
2006,12,13,02,52,2.50
2006,12,13,02,53,5.10
2006,12,13,02,54,4.80
2006,12,13,02,55,1.50
2006,12,13,02,56,1.50
2006,12,13,02,57,2.40
2006,12,13,02,58,2.80
2006,12,13,02,59,3.10
2006,12,13,03,00,1.40
2006,12,13,03,01,4.00
2006,12,13,03,02,6.00
2006,12,13,03,03,5.90
2006,12,13,03,04,3.80
2006,12,13,03,05,3.90
2006,12,13,03,06,0.60
2006,12,13,03,07,4.30
2006,12,13,03,08,2.70
2006,12,13,03,09,3.90
2006,12,13,03,10,2.30
2006,12,13,03,11,0.40
2006,12,13,03,12,2.60
2006,12,13,03,13,2.10
2006,12,13,03,14,3.30
2006,12,13,03,15,4.90
2006,12,13,03,16,8.20
2006,12,13,03,17,3.10
2006,12,13,03,18,5.00
2006,12,13,03,19,8.10
2006,12,13,03,20,9.60
2006,12,13,03,21,7.80
2006,12,13,03,22,3.20
2006,12,13,03,23,5.80
2006,12,13,03,24,4.00
2006,12,13,03,25,5.10
2006,12,13,03,26,5.10
2006,12,13,03,27,7.70
2006,12,13,03,28,8.60
2006,12,13,03,29,4.40
2006,12,13,03,30,4.80
2006,12,13,03,31,4.20
2006,12,13,03,32,3.90
2006,12,13,03,33,3.60
2006,12,13,03,34,4.20
2006,12,13,03,35,7.30
2006,12,13,03,36,12.60
2006,12,13,03,37,7.50
2006,12,13,03,38,5.70
2006,12,13,03,39,3.90
2006,12,13,03,40,9.90
2006,12,13,03,41,8.30
2006,12,13,03,42,2.60
2006,12,13,03,43,1.40
2006,12,13,03,44,3.50
2006,12,13,03,45,9.40
2006,12,13,03,46,10.80
2006,12,13,03,47,3.50
2006,12,13,03,48,19.10
2006,12,13,03,49,6.00
2006,12,13,03,50,5.70
2006,12,13,03,51,10.30
2006,12,13,03,52,12.50
2006,12,13,03,53,16.30
2006,12,13,03,54,11.30
2006,12,13,03,55,10.50
2006,12,13,03,56,10.30
2006,12,13,03,57,8.90
2006,12,13,03,58,8.40
2006,12,13,03,59,9.20
2006,12,13,04,00,7.60
2006,12,13,04,01,7.80
2006,12,13,04,02,11.70
2006,12,13,04,03,7.50
2006,12,13,04,04,7.80
2006,12,13,04,05,3.20
2006,12,13,04,06,11.60
2006,12,13,04,07,7.90
2006,12,13,04,08,5.70
2006,12,13,04,09,6.50
2006,12,13,04,10,14.30
2006,12,13,04,11,10.00
2006,12,13,04,12,4.20
2006,12,13,04,13,3.50
2006,12,13,04,14,4.30
2006,12,13,04,15,2.60
2006,12,13,04,16,3.30
2006,12,13,04,17,7.00
2006,12,13,04,18,11.00
2006,12,13,04,19,11.70
2006,12,13,04,20,6.40
2006,12,13,04,21,8.80
2006,12,13,04,22,9.60
2006,12,13,04,23,5.30
2006,12,13,04,24,1.90
2006,12,13,04,25,4.90
2006,12,13,04,26,9.60
2006,12,13,04,27,6.90
2006,12,13,04,28,3.90
2006,12,13,04,29,7.80
2006,12,13,04,30,3.80
2006,12,13,04,31,5.80
2006,12,13,04,32,4.20
2006,12,13,04,33,5.50
2006,12,13,04,34,7.70
2006,12,13,04,35,6.80
2006,12,13,04,36,7.10
2006,12,13,04,37,2.10
2006,12,13,04,38,0.00
2006,12,13,04,39,1.40
2006,12,13,04,40,1.20
2006,12,13,04,41,4.10
2006,12,13,04,42,5.70
2006,12,13,04,43,4.30
2006,12,13,04,44,4.30
2006,12,13,04,45,6.30
2006,12,13,04,46,2.50
2006,12,13,04,47,7.00
2006,12,13,04,48,4.30
2006,12,13,04,49,8.60
2006,12,13,04,50,5.60
2006,12,13,04,51,6.20
2006,12,13,04,52,5.40
2006,12,13,04,53,5.30
2006,12,13,04,54,9.20
2006,12,13,04,55,5.20
2006,12,13,04,56,4.70
2006,12,13,04,57,0.60
2006,12,13,04,58,2.10
2006,12,13,04,59,6.00
2006,12,13,05,00,6.80
2006,12,13,05,01,11.80
2006,12,13,05,02,5.80
2006,12,13,05,03,9.40
2006,12,13,05,04,11.30
2006,12,13,05,05,11.30
2006,12,13,05,06,7.80
2006,12,13,05,07,21.20
2006,12,13,05,08,18.50
2006,12,13,05,09,7.40
2006,12,13,05,10,12.60
2006,12,13,05,11,6.90
2006,12,13,05,12,10.50
2006,12,13,05,13,7.20
2006,12,13,05,14,9.80
2006,12,13,05,15,8.40
2006,12,13,05,16,7.20
2006,12,13,05,17,18.40
2006,12,13,05,18,12.70
2006,12,13,05,19,10.60
2006,12,13,05,20,10.60
2006,12,13,05,21,7.60
2006,12,13,05,22,15.40
2006,12,13,05,23,12.00
2006,12,13,05,24,6.40
2006,12,13,05,25,12.10
2006,12,13,05,26,12.50
2006,12,13,05,27,8.10
2006,12,13,05,28,11.50
2006,12,13,05,29,5.90
2006,12,13,05,30,8.10
2006,12,13,05,31,8.10
2006,12,13,05,32,8.20
2006,12,13,05,33,10.70
2006,12,13,05,34,7.70
2006,12,13,05,35,10.10
2006,12,13,05,36,14.10
2006,12,13,05,37,7.20
2006,12,13,05,38,8.10
2006,12,13,05,39,12.10
2006,12,13,05,40,11.50
2006,12,13,05,41,12.70
2006,12,13,05,42,8.90
2006,12,13,05,43,7.50
2006,12,13,05,44,6.60
2006,12,13,05,45,4.00
2006,12,13,05,46,5.40
2006,12,13,05,47,7.80
2006,12,13,05,48,8.10
2006,12,13,05,49,5.00
2006,12,13,05,50,3.10
2006,12,13,05,51,5.20
2006,12,13,05,52,5.80
2006,12,13,05,53,11.90
2006,12,13,05,54,4.30
2006,12,13,05,55,2.20
2006,12,13,05,56,9.80
2006,12,13,05,57,5.90
2006,12,13,05,58,4.10
2006,12,13,05,59,2.20
2006,12,13,06,00,3.30
2006,12,13,06,01,3.30
2006,12,13,06,02,0.20
2006,12,13,06,03,3.40
2006,12,13,06,04,7.60
2006,12,13,06,05,11.70
2006,12,13,06,06,4.90
2006,12,13,06,07,17.50
2006,12,13,06,08,7.00
2006,12,13,06,09,5.20
2006,12,13,06,10,6.00
2006,12,13,06,11,8.80
2006,12,13,06,12,9.80
2006,12,13,06,13,13.30
2006,12,13,06,14,18.30
2006,12,13,06,15,12.80
2006,12,13,06,16,6.20
2006,12,13,06,17,4.30
2006,12,13,06,18,7.10
2006,12,13,06,19,17.70
2006,12,13,06,20,9.90
2006,12,13,06,21,5.50
2006,12,13,06,22,5.10
2006,12,13,06,23,9.10
2006,12,13,06,24,11.40
2006,12,13,06,25,9.30
2006,12,13,06,26,10.90
2006,12,13,06,27,8.60
2006,12,13,06,28,3.70
2006,12,13,06,29,2.70
2006,12,13,06,30,2.20
2006,12,13,06,31,4.60
2006,12,13,06,32,7.60
2006,12,13,06,33,11.90
2006,12,13,06,34,9.30
2006,12,13,06,35,7.30
2006,12,13,06,36,12.90
2006,12,13,06,37,7.10
2006,12,13,06,38,18.40
2006,12,13,06,39,8.50
2006,12,13,06,40,4.40
2006,12,13,06,41,11.90
2006,12,13,06,42,9.20
2006,12,13,06,43,7.50
2006,12,13,06,44,5.80
2006,12,13,06,45,3.40
2006,12,13,06,46,7.00
2006,12,13,06,47,10.40
2006,12,13,06,48,10.60
2006,12,13,06,49,15.30
2006,12,13,06,50,7.40
2006,12,13,06,51,7.20
2006,12,13,06,52,7.60
2006,12,13,06,53,8.20
2006,12,13,06,54,18.10
2006,12,13,06,55,12.80
2006,12,13,06,56,8.30
2006,12,13,06,57,8.60
2006,12,13,06,58,9.40
2006,12,13,06,59,2.50
2006,12,13,07,00,3.50
2006,12,13,07,01,3.90
2006,12,13,07,02,6.40
2006,12,13,07,03,5.20
2006,12,13,07,04,8.60
2006,12,13,07,05,6.00
2006,12,13,07,06,4.80
2006,12,13,07,07,1.90
2006,12,13,07,08,6.60
2006,12,13,07,09,4.00
2006,12,13,07,10,5.40
2006,12,13,07,11,7.20
2006,12,13,07,12,4.70
2006,12,13,07,13,3.10
2006,12,13,07,14,4.40
2006,12,13,07,15,1.50
2006,12,13,07,16,5.30
2006,12,13,07,17,11.80
2006,12,13,07,18,8.00
2006,12,13,07,19,8.00
2006,12,13,07,20,12.90
2006,12,13,07,21,21.10
2006,12,13,07,22,8.80
2006,12,13,07,23,10.50
2006,12,13,07,24,9.70
2006,12,13,07,25,3.70
2006,12,13,07,26,6.30
2006,12,13,07,27,6.20
2006,12,13,07,28,7.20
2006,12,13,07,29,11.10
2006,12,13,07,30,5.20
2006,12,13,07,31,2.20
2006,12,13,07,32,7.70
2006,12,13,07,33,13.00
2006,12,13,07,34,6.40
2006,12,13,07,35,4.80
2006,12,13,07,36,11.00
2006,12,13,07,37,23.60
2006,12,13,07,38,6.90
2006,12,13,07,39,5.20
2006,12,13,07,40,9.30
2006,12,13,07,41,10.80
2006,12,13,07,42,4.00
2006,12,13,07,43,10.50
2006,12,13,07,44,14.50
2006,12,13,07,45,13.40
2006,12,13,07,46,14.30
2006,12,13,07,47,19.90
2006,12,13,07,48,5.90
2006,12,13,07,49,14.60
2006,12,13,07,50,12.30
2006,12,13,07,51,22.20
2006,12,13,07,52,14.90
2006,12,13,07,53,16.40
2006,12,13,07,54,12.10
2006,12,13,07,55,9.90
2006,12,13,07,56,13.00
2006,12,13,07,57,13.00
2006,12,13,07,58,9.50
2006,12,13,07,59,4.60
2006,12,13,08,00,5.70
2006,12,13,08,01,8.20
2006,12,13,08,02,10.90
2006,12,13,08,03,11.60
2006,12,13,08,04,17.70
2006,12,13,08,05,12.50
2006,12,13,08,06,6.30
2006,12,13,08,07,6.80
2006,12,13,08,08,9.40
2006,12,13,08,09,4.40
2006,12,13,08,10,12.10
2006,12,13,08,11,20.40
2006,12,13,08,12,13.50
2006,12,13,08,13,8.80
2006,12,13,08,14,8.90
2006,12,13,08,15,15.50
2006,12,13,08,16,13.00
2006,12,13,08,17,13.90
2006,12,13,08,18,8.30
2006,12,13,08,19,19.70
2006,12,13,08,20,5.70
2006,12,13,08,21,17.80
2006,12,13,08,22,24.20
2006,12,13,08,23,7.80
2006,12,13,08,24,11.30
2006,12,13,08,25,14.40
2006,12,13,08,26,7.00
2006,12,13,08,27,8.40
2006,12,13,08,28,17.30
2006,12,13,08,29,20.50
2006,12,13,08,30,7.90
2006,12,13,08,31,6.00
2006,12,13,08,32,10.40
2006,12,13,08,33,17.40
2006,12,13,08,34,9.50
2006,12,13,08,35,13.30
2006,12,13,08,36,19.10
2006,12,13,08,37,15.90
2006,12,13,08,38,23.40
2006,12,13,08,39,15.60
2006,12,13,08,40,14.50
2006,12,13,08,41,16.50
2006,12,13,08,42,8.60
2006,12,13,08,43,18.10
2006,12,13,08,44,14.70
2006,12,13,08,45,11.70
2006,12,13,08,46,13.80
2006,12,13,08,47,12.00
2006,12,13,08,48,10.70
2006,12,13,08,49,9.20
2006,12,13,08,50,6.40
2006,12,13,08,51,10.20
2006,12,13,08,52,14.60
2006,12,13,08,53,17.70
2006,12,13,08,54,6.10
2006,12,13,08,55,11.90
2006,12,13,08,56,13.40
2006,12,13,08,57,10.90
2006,12,13,08,58,8.10
2006,12,13,08,59,13.10
2006,12,13,09,00,8.10
2006,12,13,09,01,12.40
2006,12,13,09,02,12.50
2006,12,13,09,03,7.90
2006,12,13,09,04,7.60
2006,12,13,09,05,13.60
2006,12,13,09,06,7.90
2006,12,13,09,07,8.10
2006,12,13,12,00,7.40
2006,12,13,12,01,11.30
2006,12,13,12,10,7.50
2006,12,13,12,11,19.30
2006,12,13,12,12,14.10
2006,12,13,12,13,9.30
2006,12,13,12,14,9.60
2006,12,13,12,15,16.10
2006,12,13,12,16,15.60
2006,12,13,12,17,15.90
2006,12,13,12,18,8.90
2006,12,13,12,19,5.00
2006,12,13,12,20,6.80
2006,12,13,12,21,15.60
2006,12,13,12,22,10.40
2006,12,13,12,23,18.90
2006,12,13,12,24,19.80
2006,12,13,12,25,18.50
2006,12,13,12,26,22.70
2006,12,13,12,29,15.20
2006,12,13,12,30,12.90
2006,12,13,12,31,14.60
2006,12,13,12,32,4.70
2006,12,13,12,33,14.20
2006,12,13,12,34,13.40
2006,12,13,12,35,3.70
2006,12,13,12,36,5.90
2006,12,13,12,37,10.80
2006,12,13,12,38,12.10
2006,12,13,12,39,6.80
2006,12,13,12,40,12.90
2006,12,13,12,41,11.30
2006,12,13,12,42,10.90
2006,12,13,12,43,15.90
2006,12,13,12,44,11.30
2006,12,13,12,45,6.40
2006,12,13,12,46,6.40
2006,12,13,12,47,9.30
2006,12,13,12,48,9.30
2006,12,13,12,49,5.50
2006,12,13,12,50,11.80
2006,12,13,12,51,10.30
2006,12,13,12,52,5.70
2006,12,13,12,53,9.10
2006,12,13,12,54,12.00
2006,12,13,12,55,15.50
2006,12,13,12,56,11.30
2006,12,13,12,57,10.50
2006,12,13,12,58,6.20
2006,12,13,12,59,6.40
2006,12,13,13,00,16.10
2006,12,13,13,01,8.40
2006,12,13,13,02,17.50
2006,12,13,13,03,17.50
2006,12,13,13,04,17.40
2006,12,13,13,05,17.20
2006,12,13,15,11,4.80
2006,12,13,15,12,5.30
2006,12,13,15,13,6.40
2006,12,13,15,14,5.00
2006,12,13,15,15,5.90
2006,12,13,15,16,12.70
2006,12,13,15,17,4.10
2006,12,13,15,18,2.20
2006,12,13,15,19,2.20
2006,12,13,15,20,6.40
2006,12,13,15,21,3.60
2006,12,13,15,22,11.40
2006,12,13,15,23,13.80
2006,12,13,15,24,5.00
2006,12,13,15,25,2.70
2006,12,13,15,26,3.70
2006,12,13,15,27,5.80
2006,12,13,15,28,6.80
2006,12,13,15,29,8.00
2006,12,13,15,30,2.60
2006,12,13,15,31,15.60
2006,12,13,15,32,13.40
2006,12,13,15,33,6.40
2006,12,13,15,34,5.80
2006,12,13,15,35,11.30
2006,12,13,15,36,5.60
2006,12,13,15,37,8.70
2006,12,13,15,38,9.10
2006,12,13,15,39,5.10
2006,12,13,15,40,3.40
2006,12,13,15,41,2.90
2006,12,13,15,42,5.80
2006,12,13,15,43,4.80
2006,12,13,15,44,8.00
2006,12,13,15,45,2.20
2006,12,13,15,46,5.70
2006,12,13,15,47,3.50
2006,12,13,15,48,4.30
2006,12,13,15,49,6.00
2006,12,13,15,50,8.50
2006,12,13,15,51,4.80
2006,12,13,15,52,3.60
2006,12,13,15,53,2.20
2006,12,13,15,54,6.60
2006,12,13,15,55,1.80
2006,12,13,15,56,3.10
2006,12,13,15,57,4.90
2006,12,13,15,58,3.40
2006,12,13,15,59,5.00
2006,12,13,16,00,4.30
2006,12,13,16,01,7.50
2006,12,13,16,02,12.70
2006,12,13,16,03,11.70
2006,12,13,16,04,8.10
2006,12,13,16,05,2.50
2006,12,13,16,06,4.70
2006,12,13,16,07,4.90
2006,12,13,16,08,3.50
2006,12,13,16,09,3.00
2006,12,13,16,10,6.80
2006,12,13,16,11,6.70
2006,12,13,16,12,5.70
2006,12,13,16,13,8.20
2006,12,13,16,14,8.40
2006,12,13,16,15,9.70
2006,12,13,16,16,8.40
2006,12,13,16,17,7.10
2006,12,13,16,18,3.30
2006,12,13,16,19,2.50
2006,12,13,16,20,4.40
2006,12,13,16,21,3.60
2006,12,13,16,22,1.40
2006,12,13,16,23,0.00
2006,12,13,16,24,3.10
2006,12,13,16,25,3.40
2006,12,13,16,26,0.10
2006,12,13,16,27,1.30
2006,12,13,16,28,3.70
2006,12,13,16,29,4.80
2006,12,13,16,30,4.50
2006,12,13,16,31,3.30
2006,12,13,16,32,0.50
2006,12,13,16,33,0.30
2006,12,13,16,34,1.70
2006,12,13,16,35,1.40
2006,12,13,16,36,1.90
2006,12,13,16,37,1.60
2006,12,13,16,38,0.20
2006,12,13,16,39,0.20
2006,12,13,16,40,5.60
2006,12,13,16,41,9.90
2006,12,13,16,42,12.50
2006,12,13,16,43,10.90
2006,12,13,16,44,8.40
2006,12,13,16,45,5.00
2006,12,13,16,46,4.20
2006,12,13,16,47,16.30
2006,12,13,16,48,14.40
2006,12,13,16,49,8.20
2006,12,13,16,50,10.30
2006,12,13,16,51,7.60
2006,12,13,16,52,4.50
2006,12,13,16,53,7.60
2006,12,13,16,54,3.20
2006,12,13,16,55,6.00
2006,12,13,16,56,5.60
2006,12,13,16,57,5.80
2006,12,13,16,58,6.20
2006,12,13,16,59,1.90
2006,12,13,17,00,3.70
2006,12,13,17,01,6.50
2006,12,13,17,02,3.70
2006,12,13,17,03,1.00
2006,12,13,17,04,4.70
2006,12,13,17,05,7.10
2006,12,13,17,06,2.90
2006,12,13,17,07,1.90
2006,12,13,17,08,1.30
2006,12,13,17,09,1.00
2006,12,13,17,10,1.90
2006,12,13,17,11,1.00
2006,12,13,17,12,1.40
2006,12,13,17,13,4.10
2006,12,13,17,14,9.90
2006,12,13,17,15,12.80
2006,12,13,17,16,11.30
2006,12,13,17,17,7.90
2006,12,13,17,18,5.90
2006,12,13,17,19,5.90
2006,12,13,17,20,4.20
2006,12,13,17,21,8.00
2006,12,13,17,22,12.50
2006,12,13,17,23,5.10
2006,12,13,17,24,6.30
2006,12,13,17,25,1.40
2006,12,13,17,26,8.10
2006,12,13,17,27,4.70
2006,12,13,17,28,4.10
2006,12,13,17,29,8.70
2006,12,13,17,30,5.20
2006,12,13,17,31,13.10
2006,12,13,17,32,7.20
2006,12,13,17,33,1.70
2006,12,13,17,34,7.90
2006,12,13,17,35,6.00
2006,12,13,17,36,7.60
2006,12,13,17,37,6.90
2006,12,13,17,38,10.80
2006,12,13,17,39,8.00
2006,12,13,17,40,13.40
2006,12,13,17,41,5.30
2006,12,13,17,42,5.10
2006,12,13,17,43,5.70
2006,12,13,17,44,5.60
2006,12,13,17,45,0.90
2006,12,13,17,46,4.40
2006,12,13,17,47,10.10
2006,12,13,17,48,8.20
2006,12,13,17,49,8.40
2006,12,13,17,50,10.30
2006,12,13,17,51,1.90
2006,12,13,17,52,0.30
2006,12,13,17,53,1.40
2006,12,13,17,54,0.80
2006,12,13,17,55,2.80
2006,12,13,17,56,8.00
2006,12,13,17,57,4.80
2006,12,13,17,58,5.90
2006,12,13,17,59,2.70
2006,12,13,18,00,2.70
2006,12,13,18,01,2.20
2006,12,13,18,02,4.70
2006,12,13,18,03,4.00
2006,12,13,18,04,4.60
2006,12,13,18,05,7.70
2006,12,13,18,06,3.90
2006,12,13,18,07,6.60
2006,12,13,18,08,7.30
2006,12,13,18,09,9.30
2006,12,13,18,10,2.00
2006,12,13,18,11,0.90
2006,12,13,18,12,6.00
2006,12,13,18,13,8.60
2006,12,13,18,14,7.90
2006,12,13,18,15,6.40
2006,12,13,18,16,5.60
2006,12,13,18,17,3.00
2006,12,13,18,18,7.60
2006,12,13,18,19,2.00
2006,12,13,18,20,6.70
2006,12,13,18,21,3.80
2006,12,13,18,22,8.50
2006,12,13,18,23,4.70
2006,12,13,18,24,9.70
2006,12,13,18,25,5.10
2006,12,13,18,26,6.10
2006,12,13,18,27,4.20
2006,12,13,18,28,3.10
2006,12,13,18,29,4.60
2006,12,13,18,30,5.20
2006,12,13,18,31,6.30
2006,12,13,18,32,5.20
2006,12,13,18,33,5.90
2006,12,13,18,34,5.60
2006,12,13,18,35,3.00
2006,12,13,18,36,3.90
2006,12,13,18,37,7.30
2006,12,13,18,38,1.00
2006,12,13,18,39,2.30
2006,12,13,18,40,1.30
2006,12,13,18,41,1.10
2006,12,13,18,42,2.70
2006,12,13,18,43,4.30
2006,12,13,18,44,2.20
2006,12,13,18,45,0.00
2006,12,13,18,46,0.30
2006,12,13,18,47,0.20
2006,12,13,18,48,0.00
2006,12,13,18,49,0.80
2006,12,13,18,50,0.90
2006,12,13,18,51,1.10
2006,12,13,18,52,2.60
2006,12,13,18,53,6.00
2006,12,13,18,54,4.60
2006,12,13,18,55,1.60
2006,12,13,18,56,0.00
2006,12,13,18,57,1.00
2006,12,13,18,58,9.80
2006,12,13,18,59,1.00
2006,12,13,19,00,1.40
2006,12,13,19,01,0.80
2006,12,13,19,02,1.50
2006,12,13,19,03,4.20
2006,12,13,19,04,4.60
2006,12,13,19,05,4.70
2006,12,13,19,06,4.90
2006,12,13,19,07,2.00
2006,12,13,19,08,3.10
2006,12,13,19,09,2.50
2006,12,13,19,10,5.90
2006,12,13,19,11,0.80
2006,12,13,19,12,0.80
2006,12,13,19,13,6.90
2006,12,13,19,14,7.70
2006,12,13,19,15,10.60
2006,12,13,19,16,4.70
2006,12,13,19,17,2.40
2006,12,13,19,18,4.20
2006,12,13,19,19,10.90
2006,12,13,19,20,8.40
2006,12,13,19,21,5.30
2006,12,13,19,22,1.40
2006,12,13,19,23,6.00
2006,12,13,19,24,2.90
2006,12,13,19,25,9.20
2006,12,13,19,26,4.70
2006,12,13,19,27,4.60
2006,12,13,19,28,8.90
2006,12,13,19,29,4.60
2006,12,13,19,30,12.80
2006,12,13,19,31,12.50
2006,12,13,19,32,11.60
2006,12,13,19,33,8.00
2006,12,13,19,34,8.90
2006,12,13,19,35,4.30
2006,12,13,19,36,2.80
2006,12,13,19,37,4.20
2006,12,13,19,38,1.40
2006,12,13,19,39,7.00
2006,12,13,19,40,4.80
2006,12,13,19,41,7.40
2006,12,13,19,42,2.30
2006,12,13,19,43,5.00
2006,12,13,19,44,6.80
2006,12,13,19,45,4.30
2006,12,13,19,46,2.00
2006,12,13,19,47,3.40
2006,12,13,19,48,4.30
2006,12,13,19,49,3.00
2006,12,13,19,50,1.80
2006,12,13,19,51,0.90
2006,12,13,19,52,3.00
2006,12,13,19,53,4.70
2006,12,13,19,54,4.10
2006,12,13,19,55,6.60
2006,12,13,19,56,2.50
2006,12,13,19,57,2.50
2006,12,13,19,58,1.80
2006,12,13,19,59,8.50
2006,12,13,20,00,9.60
2006,12,13,20,01,9.60
2006,12,13,20,02,8.10
2006,12,13,20,03,7.40
2006,12,13,20,04,10.10
2006,12,13,20,05,10.70
2006,12,13,20,06,8.00
2006,12,13,20,07,11.30
2006,12,13,20,08,6.80
2006,12,13,20,09,4.40
2006,12,13,20,10,7.40
2006,12,13,20,11,8.00
2006,12,13,20,12,4.70
2006,12,13,20,13,3.70
2006,12,13,20,14,6.60
2006,12,13,20,15,7.50
2006,12,13,20,16,5.80
2006,12,13,20,17,5.80
2006,12,13,20,18,4.70
2006,12,13,20,19,5.60
2006,12,13,20,20,5.60
2006,12,13,20,21,9.60
2006,12,13,20,22,4.70
2006,12,13,20,23,4.90
2006,12,13,20,24,6.90
2006,12,13,20,25,7.80
2006,12,13,20,26,3.10
2006,12,13,20,27,15.90
2006,12,13,20,28,4.90
2006,12,13,20,29,7.00
2006,12,13,20,30,3.20
2006,12,13,20,31,7.50
2006,12,13,20,32,3.70
2006,12,13,20,33,3.50
2006,12,13,20,34,6.80
2006,12,13,20,35,5.30
2006,12,13,20,36,2.80
2006,12,13,20,37,1.60
2006,12,13,20,38,1.00
2006,12,13,20,39,5.20
2006,12,13,20,40,7.50
2006,12,13,20,41,6.40
2006,12,13,20,42,3.80
2006,12,13,20,43,2.80
2006,12,13,20,44,2.40
2006,12,13,20,45,4.40
2006,12,13,20,46,3.40
2006,12,13,20,47,2.20
2006,12,13,20,48,4.60
2006,12,13,20,49,3.30
2006,12,13,20,50,5.80
2006,12,13,20,51,2.90
2006,12,13,20,52,6.00
2006,12,13,20,53,2.40
2006,12,13,20,54,4.40
2006,12,13,20,55,5.10
2006,12,13,20,56,2.70
2006,12,13,20,57,7.70
2006,12,13,20,58,8.90
2006,12,13,20,59,4.80
2006,12,13,21,00,3.90
2006,12,13,21,01,8.40
2006,12,13,21,02,5.50
2006,12,13,21,03,9.00
2006,12,13,21,04,8.70
2006,12,13,21,05,6.90
2006,12,13,21,06,11.50
2006,12,13,21,07,10.00
2006,12,13,21,08,11.40
2006,12,13,21,09,1.50
2006,12,13,21,10,2.80
2006,12,13,21,11,1.70
2006,12,13,21,12,4.90
2006,12,13,21,13,9.30
2006,12,13,21,14,12.60
2006,12,13,21,15,6.00
2006,12,13,21,16,2.00
2006,12,13,21,17,3.80
2006,12,13,21,18,5.90
2006,12,13,21,19,6.40
2006,12,13,21,20,3.30
2006,12,13,21,21,5.80
2006,12,13,21,22,7.60
2006,12,13,21,23,8.30
2006,12,13,21,24,4.80
2006,12,13,21,25,10.80
2006,12,13,21,26,16.70
2006,12,13,21,27,12.60
2006,12,13,21,28,10.10
2006,12,13,21,29,7.60
2006,12,13,21,30,7.90
2006,12,13,21,31,5.10
2006,12,13,21,32,6.50
2006,12,13,21,33,6.40
2006,12,13,21,34,3.90
2006,12,13,21,35,4.20
2006,12,13,21,36,2.50
2006,12,13,21,37,2.60
2006,12,13,21,38,1.90
2006,12,13,21,39,1.80
2006,12,13,21,40,1.60
2006,12,13,21,41,2.90
2006,12,13,21,42,1.00
2006,12,13,21,43,0.00
2006,12,13,21,44,0.00
2006,12,13,21,45,2.00
2006,12,13,21,46,2.00
2006,12,13,21,47,3.40
2006,12,13,21,48,2.00
2006,12,13,21,49,3.90
2006,12,13,21,50,4.80
2006,12,13,21,51,2.60
2006,12,13,21,52,0.00
2006,12,13,21,53,0.00
2006,12,13,21,54,0.20
2006,12,13,21,55,1.30
2006,12,13,21,56,0.20
2006,12,13,21,57,0.00
2006,12,13,21,58,0.40
2006,12,13,21,59,0.90
2006,12,13,22,00,2.30
2006,12,13,22,01,0.80
2006,12,13,22,02,0.30
2006,12,13,22,03,4.00
2006,12,13,22,04,2.60
2006,12,13,22,05,0.30
2006,12,13,22,06,2.00
2006,12,13,22,07,2.00
2006,12,13,22,08,2.60
2006,12,13,22,09,3.00
2006,12,13,22,10,0.00
2006,12,13,22,11,0.00
2006,12,13,22,12,0.00
2006,12,13,22,13,0.00
2006,12,13,22,14,0.00
2006,12,13,22,15,0.00
2006,12,13,22,16,0.00
2006,12,13,22,17,0.00
2006,12,13,22,18,0.00
2006,12,13,22,19,0.00
2006,12,13,22,20,0.00
2006,12,13,22,21,0.00
2006,12,13,22,22,0.00
2006,12,13,22,23,0.00
2006,12,13,22,24,0.00
2006,12,13,22,25,0.00
2006,12,13,22,26,0.00
2006,12,13,22,27,0.00
2006,12,13,22,28,0.00
2006,12,13,22,29,0.00
2006,12,13,22,30,0.00
2006,12,13,22,31,0.00
2006,12,13,22,32,0.00
2006,12,13,22,33,0.90
2006,12,13,22,34,0.30
2006,12,13,22,35,0.00
2006,12,13,22,36,0.00
2006,12,13,22,37,0.00
2006,12,13,22,38,0.00
2006,12,13,22,39,0.00
2006,12,13,22,40,0.00
2006,12,13,22,41,0.00
2006,12,13,22,42,0.00
2006,12,13,22,43,0.00
2006,12,13,22,44,0.00
2006,12,13,22,45,0.00
2006,12,13,22,46,0.00
2006,12,13,22,47,0.00
2006,12,13,22,48,0.00
2006,12,13,22,49,0.00
2006,12,13,22,50,0.00
2006,12,13,22,51,0.00
2006,12,13,22,52,0.00
2006,12,13,22,53,0.30
2006,12,13,22,54,0.20
2006,12,13,22,55,0.00
2006,12,13,22,56,0.00
2006,12,13,22,57,0.00
2006,12,13,22,58,0.00
2006,12,13,22,59,0.00
2006,12,13,23,00,0.00
2006,12,13,23,01,0.00
2006,12,13,23,02,0.00
2006,12,13,23,03,0.00
2006,12,13,23,04,0.00